TimeCST,TemperatureF,Dew PointF,Humidity,Sea Level PressureIn,VisibilityMPH,Wind Direction,Wind SpeedMPH,Gust SpeedMPH,PrecipitationIn,Events,Conditions,WindDirDegrees,DateUTC
12:11 AM,37.4,33.8,87,30.00,10.0,Calm,Calm,-,N/A,,Clear,0,2012-11-09 06:11:00
12:31 AM,35.6,32.0,87,30.00,10.0,Calm,Calm,-,N/A,,Clear,0,2012-11-09 06:31:00
12:51 AM,33.8,32.0,93,29.99,10.0,Calm,Calm,-,N/A,,Clear,0,2012-11-09 06:51:00
1:11 AM,33.8,32.0,93,29.99,10.0,Calm,Calm,-,N/A,,Clear,0,2012-11-09 07:11:00
1:31 AM,35.6,33.8,93,29.98,10.0,Calm,Calm,-,N/A,,Clear,0,2012-11-09 07:31:00
1:51 AM,33.8,32.0,93,29.98,10.0,NE,3.5,-,N/A,,Clear,40,2012-11-09 07:51:00
2:11 AM,33.8,32.0,93,29.98,10.0,NNE,3.5,-,N/A,,Clear,30,2012-11-09 08:11:00
2:31 AM,33.8,32.0,93,29.98,10.0,NNE,3.5,-,N/A,,Clear,30,2012-11-09 08:31:00
2:51 AM,33.8,30.2,87,29.99,10.0,Calm,Calm,-,N/A,,Clear,0,2012-11-09 08:51:00
3:11 AM,33.8,32.0,93,29.99,10.0,Calm,Calm,-,N/A,,Clear,0,2012-11-09 09:11:00
3:31 AM,32.0,30.2,93,29.98,7.0,Calm,Calm,-,N/A,,Clear,0,2012-11-09 09:31:00
3:51 AM,30.2,28.4,93,29.98,5.0,Calm,Calm,-,N/A,,Clear,0,2012-11-09 09:51:00
4:11 AM,32.0,32.0,100,29.99,7.0,NNE,3.5,-,N/A,,Clear,30,2012-11-09 10:11:00
4:31 AM,33.8,32.0,93,30.00,7.0,NNE,3.5,-,N/A,,Clear,30,2012-11-09 10:31:00
4:51 AM,33.8,32.0,93,30.01,7.0,Calm,Calm,-,N/A,,Clear,0,2012-11-09 10:51:00
5:11 AM,32.0,30.2,93,30.00,7.0,Calm,Calm,-,N/A,,Clear,0,2012-11-09 11:11:00
5:31 AM,30.2,30.2,100,30.01,5.0,Calm,Calm,-,N/A,,Clear,0,2012-11-09 11:31:00
5:51 AM,30.2,30.2,100,30.01,5.0,Calm,Calm,-,N/A,,Clear,0,2012-11-09 11:51:00
6:12 AM,30.2,30.2,100,30.01,5.0,Calm,Calm,-,N/A,,Clear,0,2012-11-09 12:12:00
6:31 AM,30.2,30.2,100,30.01,4.0,ENE,3.5,-,N/A,,Clear,60,2012-11-09 12:31:00
6:51 AM,30.2,30.2,100,30.01,2.0,Calm,Calm,-,N/A,,Clear,0,2012-11-09 12:51:00
7:12 AM,30.2,30.2,100,30.02,1.8,Calm,Calm,-,N/A,,Mist,0,2012-11-09 13:12:00
7:31 AM,28.4,28.4,100,30.02,1.2,Calm,Calm,-,N/A,,Mist,0,2012-11-09 13:31:00
7:51 AM,28.4,28.4,100,30.03,1.8,Calm,Calm,-,N/A,,Mist,0,2012-11-09 13:51:00
8:12 AM,30.2,30.2,100,30.03,1.8,Calm,Calm,-,N/A,,Mist,0,2012-11-09 14:12:00
8:31 AM,33.8,33.8,100,30.03,2.5,Calm,Calm,-,N/A,,Clear,0,2012-11-09 14:31:00
8:51 AM,35.6,35.6,100,30.03,4.0,ENE,3.5,-,N/A,,Clear,60,2012-11-09 14:51:00
9:11 AM,37.4,35.6,93,30.03,7.0,ENE,4.6,-,N/A,,Clear,60,2012-11-09 15:11:00
9:31 AM,39.2,37.4,93,30.02,7.0,ENE,10.4,-,N/A,,Clear,70,2012-11-09 15:31:00
9:51 AM,41.0,37.4,87,30.02,7.0,East,9.2,-,N/A,,Clear,80,2012-11-09 15:51:00
10:11 AM,42.8,37.4,81,30.01,7.0,East,10.4,-,N/A,,Clear,80,2012-11-09 16:11:00
10:31 AM,44.6,39.2,81,30.01,7.0,ENE,10.4,-,N/A,,Clear,70,2012-11-09 16:31:00
10:51 AM,44.6,39.2,81,30.01,7.0,East,10.4,-,N/A,,Clear,80,2012-11-09 16:51:00
11:11 AM,46.4,39.2,76,30.00,7.0,East,13.8,-,N/A,,Clear,80,2012-11-09 17:11:00
11:31 AM,48.2,39.2,71,29.99,7.0,East,13.8,-,N/A,,Clear,90,2012-11-09 17:31:00
11:51 AM,48.2,39.2,71,29.98,10.0,ESE,13.8,19.6,N/A,,Clear,110,2012-11-09 17:51:00
12:11 PM,50.0,39.2,66,29.97,10.0,East,15.0,19.6,N/A,,Clear,90,2012-11-09 18:11:00
12:31 PM,51.8,41.0,67,29.96,10.0,ESE,13.8,-,N/A,,Clear,110,2012-11-09 18:31:00
12:51 PM,51.8,39.2,62,29.95,10.0,East,17.3,20.7,N/A,,Clear,100,2012-11-09 18:51:00
1:11 PM,51.8,39.2,62,29.94,10.0,ESE,17.3,21.9,N/A,,Clear,110,2012-11-09 19:11:00
1:31 PM,51.8,39.2,62,29.93,10.0,East,13.8,-,N/A,,Clear,100,2012-11-09 19:31:00
1:52 PM,51.8,39.2,62,29.93,10.0,East,15.0,-,N/A,,Clear,90,2012-11-09 19:52:00
2:11 PM,51.8,39.2,62,29.92,10.0,East,11.5,-,N/A,,Clear,90,2012-11-09 20:11:00
2:31 PM,50.0,39.2,66,29.93,10.0,East,17.3,-,N/A,,Clear,80,2012-11-09 20:31:00
2:52 PM,50.0,39.2,66,29.94,10.0,East,12.7,-,N/A,,Clear,90,2012-11-09 20:52:00
3:11 PM,50.0,39.2,66,29.93,10.0,East,13.8,20.7,N/A,,Clear,90,2012-11-09 21:11:00
3:31 PM,50.0,39.2,66,29.93,10.0,East,15.0,-,N/A,,Clear,80,2012-11-09 21:31:00
3:52 PM,48.2,39.2,71,29.92,10.0,ENE,13.8,-,N/A,,Clear,70,2012-11-09 21:52:00
4:11 PM,48.2,39.2,71,29.93,10.0,East,12.7,19.6,N/A,,Clear,80,2012-11-09 22:11:00
4:31 PM,46.4,39.2,76,29.92,10.0,ENE,10.4,-,N/A,,Clear,70,2012-11-09 22:31:00
4:52 PM,46.4,37.4,71,29.92,10.0,ENE,9.2,-,N/A,,Clear,70,2012-11-09 22:52:00
5:11 PM,46.4,37.4,71,29.92,10.0,ENE,10.4,-,N/A,,Clear,70,2012-11-09 23:11:00
5:31 PM,46.4,37.4,71,29.93,10.0,East,10.4,-,N/A,,Clear,80,2012-11-09 23:31:00
5:52 PM,46.4,39.2,76,29.94,10.0,East,9.2,-,N/A,,Mostly Cloudy,80,2012-11-09 23:52:00
6:11 PM,46.4,37.4,71,29.93,10.0,East,9.2,-,N/A,,Overcast,80,2012-11-10 00:11:00
6:31 PM,46.4,37.4,71,29.93,10.0,East,15.0,-,N/A,,Overcast,90,2012-11-10 00:31:00
6:52 PM,46.4,37.4,71,29.93,10.0,East,15.0,-,N/A,,Overcast,90,2012-11-10 00:52:00
7:11 PM,46.4,37.4,71,29.93,10.0,East,19.6,24.2,N/A,,Overcast,90,2012-11-10 01:11:00
7:31 PM,46.4,37.4,71,29.94,10.0,East,17.3,-,N/A,,Overcast,80,2012-11-10 01:31:00
7:52 PM,46.4,37.4,71,29.94,10.0,East,17.3,-,N/A,,Overcast,90,2012-11-10 01:52:00
8:11 PM,46.4,37.4,71,29.94,10.0,East,16.1,19.6,N/A,,Overcast,90,2012-11-10 02:11:00
8:31 PM,44.6,37.4,76,29.96,10.0,East,15.0,-,N/A,,Overcast,90,2012-11-10 02:31:00
8:52 PM,44.6,37.4,76,29.96,10.0,East,15.0,21.9,N/A,,Overcast,90,2012-11-10 02:52:00
9:11 PM,44.6,37.4,76,29.97,10.0,East,13.8,18.4,N/A,,Overcast,90,2012-11-10 03:11:00
9:31 PM,44.6,37.4,76,29.96,10.0,East,15.0,-,N/A,,Overcast,90,2012-11-10 03:31:00
9:52 PM,44.6,37.4,76,29.95,10.0,East,17.3,23.0,N/A,,Overcast,90,2012-11-10 03:52:00
10:11 PM,44.6,37.4,76,29.95,10.0,East,16.1,-,N/A,,Overcast,90,2012-11-10 04:11:00
10:31 PM,44.6,37.4,76,29.94,7.0,East,12.7,20.7,N/A,,Overcast,90,2012-11-10 04:31:00
10:51 PM,44.6,37.4,76,29.93,7.0,East,16.1,20.7,N/A,,Overcast,90,2012-11-10 04:51:00
11:11 PM,42.8,39.2,87,29.92,5.0,East,16.1,20.7,N/A,,Overcast,100,2012-11-10 05:11:00
11:31 PM,42.8,39.2,87,29.92,5.0,East,15.0,19.6,N/A,,Mostly Cloudy,100,2012-11-10 05:31:00
11:51 PM,42.8,39.2,87,29.91,2.5,East,12.7,-,N/A,,Light Drizzle,100,2012-11-10 05:51:00